Home > Weather > Columbus > Past weeks

Flag for USA Weather for the Past 2 Weeks in Columbus, Georgia, USA

Now
54 °F

Clear.


Feels Like: 52 °F
Forecast: 53 / 71 °F
Wind: 7 mph from Northwest

Location: Columbus Metropolitan Airport

Current Time: May 5, 2016 at 6:57:01 AM

Latest Report: May 5, 2016 at 5:51 AM


Visibility: 10 mi

Pressure: 29.77 "Hg

Humidity: 86%

Dew Point: 50 °F

Location of ColumbusLocation

Historic Weather in Columbus — Graph

°F

Columbus Temperature Yesterday

Maximum temperature yesterday: 73 °F (at 4:51 PM)
Minimum temperature yesterday: 57 °F (at 6:51 AM)
Average temperature yesterday: 66 °F

High & Low Weather Summary for the Past Weeks

 TemperatureHumidityPressure
High87 °F (Apr 29, 2:51 PM)100% (Apr 29, 8:00 AM)30.11 "Hg (Apr 29, 8:00 AM)
Low53 °F (Apr 21, 6:51 AM)26% (Apr 20, 3:51 PM)29.72 "Hg (May 4, 8:51 PM)
Average71 °F69%29.94 "Hg
* Reported Apr 20 5:51 AM — May 5 5:51 AM, Columbus, Weather by CustomWeather, © 2016

Note: Actual official high and low records may vary slightly from our data, if they occured in-between our weather recording intervals... More about our weather records

Advertising

Columbus Weather History for the Previous 24 Hours

Scroll right to see more
 ConditionsComfort  
Time TempWeatherWind HumidityBarometerVisibility
5:51 AM
Thu, May 5
54 °FClear.7 mph86%29.77 "Hg10 mi
4:51 AM55 °FClear.7 mph87%29.76 "Hg10 mi
3:51 AM56 °FClear.8 mph84%29.75 "Hg10 mi
2:51 AM57 °FClear.7 mph83%29.76 "Hg10 mi
1:51 AM58 °FClear.9 mph81%29.78 "Hg10 mi
12:51 AM60 °FPassing clouds.8 mph75%29.78 "Hg10 mi
11:51 PM
Wed, May 4
62 °FLight rain. Mostly cloudy.10 mph65%29.77 "Hg10 mi
10:51 PM63 °FPassing clouds.5 mph54%29.75 "Hg10 mi
9:51 PM65 °FClear.5 mph49%29.73 "Hg10 mi
8:51 PM66 °FSunny.6 mph45%29.72 "Hg10 mi
7:51 PM70 °FSunny.10 mph37%29.73 "Hg10 mi
6:51 PM71 °FSunny.15 mph35%29.73 "Hg10 mi
5:51 PM73 °FPassing clouds.14 mph30%29.73 "Hg10 mi
4:51 PM73 °FPassing clouds.17 mph32%29.73 "Hg10 mi
3:51 PM72 °FPassing clouds.8 mph34%29.74 "Hg10 mi
2:51 PM72 °FScattered clouds.13 mph34%29.77 "Hg10 mi
1:51 PM71 °FScattered clouds.12 mph35%29.80 "Hg10 mi
12:51 PM69 °FPartly sunny.12 mph41%29.83 "Hg10 mi
11:51 AM69 °FPassing clouds.6 mph39%29.84 "Hg10 mi
10:51 AM67 °FPassing clouds.7 mph45%29.83 "Hg10 mi
9:51 AM64 °FSunny.8 mph58%29.83 "Hg10 mi
8:51 AM61 °FSunny.8 mph67%29.83 "Hg10 mi
7:51 AM58 °FSunny.9 mph78%29.84 "Hg10 mi
6:51 AM57 °FClear.5 mph83%29.83 "Hg10 mi
Weather by CustomWeather, © 2016

See weather overviewHow to use our weather pages